This is the latest recevied weather packets stored in our database for station/object WI0K. If no packets are shown the sender has not sent any weather packets the latest 10 day(s).
| Time | Temp. | Humidity | Pressure | Rain* | Wind** | Luminosity | Snow |
|---|---|---|---|---|---|---|---|
| 1778244144 | 7.78° C | 88% | 1018.1 hPa | 0 mm | - | 15 W/m² | - |
| 1778243843 | 7.22° C | 89% | 1018.1 hPa | 0 mm | - | 9 W/m² | - |
| 1778243542 | 7.22° C | 89% | 1017.9 hPa | 0 mm | - | 9 W/m² | - |
| 1778243242 | 6.67° C | 93% | 1017.8 hPa | 0 mm | - | 11 W/m² | - |
| 1778242941 | 6.67° C | 94% | 1017.6 hPa | 0 mm | - | 11 W/m² | - |
| 1778242640 | 6.11° C | 94% | 1017.5 hPa | 0 mm | - | 8 W/m² | - |
| 1778242340 | 5.56° C | 95% | 1017.2 hPa | 0 mm | - | 8 W/m² | - |
| 1778242039 | 5.56° C | 94% | 1017.1 hPa | 0 mm | - | 5 W/m² | - |
| 1778241739 | 5.56° C | 94% | 1017 hPa | 0 mm | - | 5 W/m² | - |
| 1778241438 | 5.56° C | 93% | 1016.9 hPa | 0 mm | - | 5 W/m² | - |
| 1778241137 | 5.56° C | 93% | 1016.9 hPa | 0 mm | - | 3 W/m² | - |
| 1778240837 | 5.56° C | 93% | 1016.8 hPa | 0 mm | - | 2 W/m² | - |
| 1778240536 | 5.56° C | 93% | 1016.6 hPa | 0 mm | - | 1 W/m² | - |
| 1778240236 | 5.56° C | 93% | 1016.8 hPa | 0 mm | - | 0 W/m² | - |
| 1778239935 | 5.56° C | 93% | 1016.6 hPa | 0 mm | - | 0 W/m² | - |
| 1778239634 | 5.56° C | 93% | 1016.6 hPa | 0 mm | - | 0 W/m² | - |
| 1778239334 | 6.11° C | 92% | 1016.5 hPa | 0 mm | - | 0 W/m² | - |
| 1778239033 | 6.11° C | 91% | 1016.5 hPa | 0 mm | - | 0 W/m² | - |
| 1778238732 | 6.67° C | 90% | 1016.5 hPa | 0 mm | - | 0 W/m² | - |
| 1778238432 | 6.67° C | 89% | 1016.6 hPa | 0 mm | - | 0 W/m² | - |
| 1778238131 | 6.67° C | 89% | 1016.4 hPa | 0 mm | - | 0 W/m² | - |
| 1778237830 | 6.67° C | 89% | 1016.5 hPa | 0 mm | - | 0 W/m² | - |
| 1778237530 | 6.67° C | 89% | 1016.5 hPa | 0 mm | - | 0 W/m² | - |
| 1778237229 | 6.67° C | 89% | 1016.5 hPa | 0 mm | - | 0 W/m² | - |
| 1778236929 | 6.67° C | 90% | 1016.4 hPa | 0 mm | - | 0 W/m² | - |
* Rain latest hour (hover to see other rain measurements)
** Current wind speed in m/s (hover to see current wind gust speed)